Weather History for Del Rio Laughlin AFB, TX

Change the Weather History Date:

Friday, May 9, 2014

  Actual Average Record
Temperature  
Mean Temperature 81 °F -  
Max Temperature 90 °F 90 °F 104 °F (2006)
Min Temperature 70 °F 69 °F 62 °F (2007)
Cooling Degree Days 16    
Growing Degree Days 31 (Base 50)    
Moisture  
Dew Point 64 °F    
Average Humidity 61    
Maximum Humidity 79    
Minimum Humidity 36    
Precipitation  
Precipitation 0.00 in - - ()
Sea Level Pressure  
Sea Level Pressure 29.84 in    
Wind  
Wind Speed 9 mph (East)    
Max Wind Speed 21 mph    
Max Gust Speed 32 mph    
Visibility 10 miles    
Events      
Averages and records for this station are not official NWS values.
T = Trace of Precipitation, MM = Missing Value Source: NWS Daily Summary

Daily Weather History Graph

Daily Weather History Graph

Search for Another Location

Airport:

Trip Planner

Search our weather history database for the weather conditions in past years. The results will help you decide how hot, cold, wet, or windy it might be!

Date:

Astronomy

May. 09, 2014 Rise Set
Actual Time 6:54 AM CDT 8:24 PM CDT
Civil Twilight 6:29 AM CDT 8:50 PM CDT
Nautical Twilight 5:58 AM CDT 9:20 PM CDT
Astronomical Twilight 5:26 AM CDT 9:53 PM CDT
Moon 3:46 PM CDT (5/9) 3:33 AM CDT (5/9)
Length of Visible Light 14h 21m
Length of Day
13h 29m
Waxing Gibbous, 74% of the Moon is Illuminated
May 9
Waxing Gibbous
May 14
Full
May 21
Last Quarter
May 28
New
Jun 5
First Quarter

Hourly Weather History & Observations

Time (CDT) Temp. Heat Index Dew Point Humidity Pressure Visibility Wind Dir Wind Speed Gust Speed Precip Events Conditions
12:58 AM 80.1 °F 81.4 °F 62.8 °F 55% 29.79 in 10.0 mi ESE 6.9 mph - N/A   Clear
1:58 AM 79.0 °F - 66.4 °F 65% 29.79 in 10.0 mi East 6.9 mph - N/A   Clear
2:58 AM 76.8 °F - 66.9 °F 71% 29.77 in 10.0 mi ESE 8.1 mph - N/A   Partly Cloudy
3:58 AM 75.7 °F - 67.5 °F 75% 29.77 in 10.0 mi East 8.1 mph - N/A   Clear
4:58 AM 74.3 °F - 67.3 °F 79% 29.81 in 10.0 mi North 10.4 mph - N/A   Scattered Clouds
5:33 AM 77.0 °F - 68.0 °F 74% 29.86 in 10.0 mi ENE 5.8 mph - N/A   Mostly Cloudy
5:38 AM 77.0 °F - 68.0 °F 74% 29.86 in 10.0 mi ENE 6.9 mph - N/A   Mostly Cloudy
5:58 AM 76.1 °F - 68.5 °F 77% 29.83 in 10.0 mi Variable 3.5 mph - N/A   Overcast
6:23 AM 77.0 °F - 69.8 °F 78% 29.88 in 10.0 mi NE 5.8 mph - N/A   Overcast
6:33 AM 77.0 °F - 69.8 °F 78% 29.88 in 10.0 mi ENE 5.8 mph - N/A   Mostly Cloudy
6:58 AM 76.1 °F - 68.7 °F 78% 29.85 in 10.0 mi East 5.8 mph - N/A   Mostly Cloudy
7:58 AM 77.2 °F - 69.6 °F 77% 29.87 in 10.0 mi East 6.9 mph - N/A   Mostly Cloudy
8:58 AM 79.3 °F - 69.8 °F 72% 29.89 in 10.0 mi East 5.8 mph - N/A   Clear
9:08 AM 77.0 °F - 60.8 °F 57% 29.93 in 10.0 mi North 15.0 mph 18.4 mph N/A   Mostly Cloudy
9:33 AM 77.0 °F - 60.8 °F 57% 29.93 in 10.0 mi NNE 12.7 mph - N/A   Mostly Cloudy
9:58 AM 79.2 °F - 59.9 °F 52% 29.89 in 10.0 mi NE 8.1 mph - N/A   Scattered Clouds
10:58 AM 75.9 °F - 56.8 °F 51% 29.89 in 10.0 mi NNE 11.5 mph - N/A   Overcast
11:03 AM 75.2 °F - 57.2 °F 53% 29.92 in 10.0 mi NNE 12.7 mph - N/A   Overcast
11:58 AM 77.5 °F - 55.0 °F 46% 29.91 in 10.0 mi NE 6.9 mph - N/A   Mostly Cloudy
12:58 PM 82.4 °F 83.4 °F 62.8 °F 51% 29.88 in 10.0 mi East 10.4 mph - N/A   Partly Cloudy
1:58 PM 84.0 °F 85.8 °F 64.9 °F 53% 29.83 in 10.0 mi Variable 4.6 mph - N/A   Partly Cloudy
2:58 PM 86.7 °F 88.4 °F 64.6 °F 48% 29.80 in 10.0 mi ESE 5.8 mph - N/A   Clear
3:58 PM 90.5 °F 90.1 °F 60.4 °F 36% 29.78 in 10.0 mi South 12.7 mph - N/A   Clear
4:58 PM 90.7 °F 90.4 °F 60.1 °F 36% 29.74 in 10.0 mi SSW 6.9 mph - N/A   Clear
5:58 PM 90.9 °F 92.0 °F 63.7 °F 40% 29.73 in 10.0 mi SE 12.7 mph - N/A   Clear
6:58 PM 88.7 °F 90.4 °F 64.6 °F 45% 29.73 in 10.0 mi ESE 11.5 mph - N/A   Clear
7:58 PM 84.4 °F 84.4 °F 60.3 °F 44% 29.75 in 10.0 mi ESE 20.7 mph 32.2 mph N/A   Partly Cloudy
8:58 PM 77.2 °F - 60.8 °F 57% 29.79 in 10.0 mi ESE 19.6 mph 32.2 mph N/A   Clear
9:58 PM 74.7 °F - 60.3 °F 61% 29.83 in 10.0 mi ESE 12.7 mph - N/A   Clear
10:58 PM 72.9 °F - 60.6 °F 65% 29.86 in 10.0 mi SE 13.8 mph - N/A   Clear
11:58 PM 70.9 °F - 61.9 °F 73% 29.88 in 10.0 mi ESE 13.8 mph - N/A   Clear